FW9766 Weather Reports


Display with metric or nautical units.
time (UTC)temp
F
wind
direction
speed
MPH
gust
MPH
rain 1hr
in
rain 24hr
in
rain mn
in
humidity
%
barometer
mb
20260509113046 68 229 3.0 10.0 0.00 0.00 0.00 98 1013.2
20260509111549 68 295 3.0 9.0 0.00 0.00 0.00 98 1013.5
20260509110046 68 0 0.0 0.0 0.00 0.00 0.00 98 1012.8
20260509104544 68 0 0.0 3.0 0.00 0.00 0.00 98 1012.3
20260509103042 68 325 1.0 3.0 0.00 0.00 0.00 98 1012.2
20260509101554 67 0 0.0 3.0 0.00 0.00 0.00 98 1012.2
20260509100048 67 0 0.0 0.0 0.00 0.00 0.00 98 1012.0
20260509094546 67 0 0.0 0.0 0.00 0.00 0.00 98 1011.8
20260509093053 67 0 0.0 0.0 0.00 0.00 0.00 97 1011.6
20260509091549 67 0 0.0 0.0 0.00 0.00 0.00 97 1011.4
20260509090050 67 0 0.0 0.0 0.00 0.00 0.00 97 1011.2
20260509084554 67 0 0.0 0.0 0.00 0.00 0.00 97 1011.6
20260509083045 68 0 0.0 4.0 0.00 0.00 0.00 97 1011.9
20260509081545 68 0 0.0 0.0 0.00 0.00 0.00 97 1012.2
20260509080052 68 0 0.0 0.0 0.00 0.00 0.00 97 1012.2
20260509074542 68 0 0.0 0.0 0.00 0.00 0.00 97 1012.1
20260509073048 67 0 0.0 0.0 0.00 0.00 0.00 97 1012.1
20260509071547 67 0 0.0 0.0 0.00 0.00 0.00 97 1011.9
20260509070046 67 0 0.0 0.0 0.00 0.00 0.00 97 1012.2
20260509064545 67 0 0.0 0.0 0.00 0.00 0.00 97 1011.9
20260509063048 67 0 0.0 0.0 0.00 0.00 0.00 97 1012.1
20260509061549 66 0 0.0 0.0 0.00 0.00 0.00 97 1012.2
20260509060050 65 0 0.0 0.0 0.00 0.00 0.00 97 1012.2
20260509054550 65 0 0.0 0.0 0.00 0.00 0.00 96 1012.4
20260509053046 65 0 0.0 0.0 0.00 0.00 0.00 96 1012.6
20260509051610 65 0 0.0 3.0 0.00 0.00 0.00 96 1012.4
20260509050049 65 0 0.0 0.0 0.00 0.00 0.00 96 1012.9
20260509044548 65 0 0.0 3.0 0.00 0.00 0.00 96 1012.6
20260509043044 65 0 0.0 0.0 0.00 0.00 0.00 95 1012.3
20260509041549 65 0 0.0 0.0 0.00 0.00 0.00 95 1012.2
20260509040053 65 78 1.0 4.0 0.00 0.00 0.00 95 1011.8
20260509034549 66 0 0.0 3.0 0.00 0.00 0.00 94 1011.3
20260509033046 66 0 0.0 2.0 0.00 0.00 0.00 94 1011.1
20260509031549 66 0 0.0 0.0 0.00 0.00 0.00 93 1011.2
20260509030044 67 0 0.0 0.0 0.00 0.00 0.00 94 1011.0
20260509024548 67 0 0.0 0.0 0.00 0.00 0.00 92 1011.0
20260509023047 68 0 0.0 0.0 0.00 0.00 0.00 92 1011.0
20260509021548 68 0 0.0 0.0 0.00 0.00 0.00 91 1010.9
20260509020046 69 0 0.0 0.0 0.00 0.00 0.00 90 1010.8
20260509014547 70 0 0.0 0.0 0.00 0.00 0.00 89 1010.6
20260509013105 71 0 0.0 0.0 0.00 0.00 0.00 87 1010.5
20260509011544 72 0 1.0 4.0 0.00 0.00 0.00 85 1010.2
20260509010048 73 108 1.0 5.0 0.00 0.00 0.00 84 1009.9
20260509004546 74 67 3.0 8.0 0.00 0.00 0.00 83 1009.9
20260509003049 75 53 2.0 6.0 0.00 0.00 0.00 81 1010.2
20260509001547 75 59 3.0 9.0 0.00 0.00 0.00 81 1010.1
20260509000048 75 92 3.0 10.0 0.00 0.00 0.00 82 1010.1
20260508234548 75 101 2.0 9.0 0.00 0.00 0.00 82 1010.3
20260508233101 75 76 4.0 10.0 0.00 0.00 0.00 83 1010.3
20260508231550 74 61 4.0 11.0 0.00 0.00 0.00 83 1010.2
20260508230055 75 54 3.0 11.0 0.00 0.00 0.00 84 1010.4
20260508224551 75 136 5.0 10.0 0.00 0.00 0.00 83 1010.4
20260508223044 75 40 4.0 9.0 0.00 0.00 0.00 83 1010.4
20260508221542 74 69 3.0 10.0 0.00 0.00 0.00 84 1010.4
20260508220048 75 66 3.0 8.0 0.00 0.00 0.00 82 1010.3
20260508214548 75 106 3.0 9.0 0.00 0.00 0.00 83 1010.5
20260508213045 75 0 2.0 9.0 0.00 0.00 0.00 83 1010.6
20260508211544 75 65 1.0 7.0 0.00 0.00 0.00 82 1010.6
20260508210047 75 77 4.0 9.0 0.00 0.00 0.00 81 1010.8
20260508204551 76 53 2.0 9.0 0.00 0.00 0.00 80 1010.9
20260508203053 77 57 4.0 9.0 0.00 0.00 0.00 77 1011.1
20260508201548 77 96 3.0 9.0 0.00 0.00 0.00 80 1011.0
20260508194543 76 24 0.0 8.0 0.00 0.00 0.00 81 1011.2
20260508193048 76 90 5.0 11.0 0.00 0.00 0.00 81 1011.5
20260508191554 76 123 3.0 8.0 0.00 0.00 0.00 81 1011.7
20260508190047 75 101 3.0 7.0 0.00 0.00 0.00 83 1011.7
20260508184551 74 111 2.0 5.0 0.00 0.00 0.00 83 1011.9
20260508183049 74 139 3.0 9.0 0.00 0.00 0.00 84 1012.0
20260508181547 74 117 2.0 10.0 0.00 0.00 0.00 85 1012.4
20260508180049 74 86 3.0 9.0 0.00 0.00 0.00 84 1012.7
20260508174603 73 65 3.0 9.0 0.00 0.00 0.00 83 1012.8
20260508173048 73 0 0.0 4.0 0.00 0.00 0.00 83 1012.9
20260508171545 72 34 2.0 5.0 0.00 0.00 0.00 84 1013.2
20260508170050 71 29 0.0 4.0 0.00 0.00 0.00 85 1013.3
20260508164549 69 337 0.0 3.0 0.00 0.00 0.00 87 1013.5
20260508163048 68 120 2.0 5.0 0.00 0.00 0.00 87 1014.1
20260508161548 67 0 1.0 5.0 0.00 0.00 0.00 90 1013.8
20260508160050 65 0 0.0 4.0 0.00 0.00 0.00 91 1014.3
20260508154550 64 0 0.0 3.0 0.00 0.00 0.00 92 1014.6
20260508153043 63 0 0.0 0.0 0.00 0.00 0.00 93 1014.9
20260508151557 62 0 0.0 1.0 0.00 0.00 0.00 94 1014.9
20260508150047 62 0 0.0 0.0 0.00 0.00 0.00 94 1015.0
20260508144550 61 0 0.0 0.0 0.00 0.00 0.00 94 1015.0
20260508143055 61 0 0.0 0.0 0.00 0.00 0.00 94 1015.3
20260508141544 60 0 0.0 0.0 0.00 0.00 0.00 94 1015.3
20260508140051 60 0 0.0 2.0 0.00 0.00 0.00 94 1015.3
20260508134552 60 31 0.0 5.0 0.00 0.00 0.00 94 1015.1
20260508133050 60 336 0.0 2.0 0.00 0.00 0.00 94 1014.9
20260508131548 59 0 0.0 2.0 0.00 0.00 0.00 94 1015.1
20260508130100 59 0 0.0 0.0 0.00 0.00 0.00 94 1014.8
20260508124549 59 303 1.0 3.0 0.00 0.00 0.00 93 1015.0
20260508123055 59 328 0.0 4.0 0.00 0.00 0.00 93 1014.6
20260508121546 59 327 0.0 3.0 0.00 0.00 0.00 92 1014.7
20260508120051 59 0 0.0 3.0 0.00 0.00 0.00 91 1014.7
20260508114549 60 40 1.0 4.0 0.00 0.00 0.00 91 1015.2